Regional Weather Roundup
Issued by NWS Cleveland, OH

Home | Current Version | Previous Version | Graphics & Text | Print | Product List | Glossary On
Versions: 1 2 3 4 5 6 7 8 9 10 11 12 13 14 15 16 17 18 19 20 21 22 23 24 25 26 27 28 29 30 31 32 33 34 35 36 37 38 39 40 41 42 43 44 45 46 47 48 49 50
000
ASUS41 KCLE 272110
RWRCLE
OHIO REGIONAL WEATHER ROUNDUP
NATIONAL WEATHER SERVICE CLEVELAND, OH
500 PM EDT FRI MAR 27 2015

NOTE: "FAIR" INDICATES FEW OR NO CLOUDS BELOW 12,000 FEET WITH NO
SIGNIFICANT WEATHER AND/OR OBSTRUCTIONS TO VISIBILITY.

OHZ001>008-015>018-024>027-034-035-043-044-272200-
   NORTHWEST OHIO

CITY           SKY/WX    TMP DP  RH WIND       PRES   REMARKS
DEFIANCE       PTSUNNY   32   7  35 NW10      30.03F WCI  24
FINDLAY        CLOUDY    28  14  55 NW13      30.02R WCI  17
TOLEDO EXPRESS CLOUDY    27   7  42 NW9       30.03F WCI  18
TOLEDO EXEC    CLOUDY    28  12  51 NW12      30.04S WCI  18
LIMA           CLOUDY    28  13  53 N10       30.02R WCI  19
$$

OHZ009>014-019>023-028>033-038-089-272200-
   NORTHEAST OHIO

CITY           SKY/WX    TMP DP  RH WIND       PRES   REMARKS
CLE-HOPKINS    LGT SNOW  25  19  78 N14       30.02R WCI  13
CLE-LAKEFRONT  CLOUDY    26  19  74 N15G22    29.99R WCI  14
CUY CO. ARPT   LGT SNOW  27  23  86 N16G23    29.98R WCI  14
LORAIN-ELYRIA  LGT SNOW  24  19  81 N15       30.00R WCI  11
ASHTABULA      LGT SNOW  24  17  74 NW12G21   29.95R WCI  13
AKRON-CANTON   LGT SNOW  27  19  72 NW14      29.93S WCI  16
WOOSTER        CLOUDY    26  20  77 N14       29.95S WCI  14
MANSFIELD      LGT SNOW  25  19  78 NW9       29.96S WCI  15
YOUNGSTOWN     LGT SNOW  27  20  75 NW13      29.90S WCI  16
$$

OHZ042-051>053-060>062-070>072-077>081-272200-
  SOUTHWEST OHIO

CITY           SKY/WX    TMP DP  RH WIND       PRES   REMARKS
CINC-COVINGTON CLOUDY    34  16  47 NW17      30.01S WCI  23
CINC-LUNKEN    CLOUDY    35  17  47 N15G22    30.03S WCI  25
HAMILTON       CLOUDY    33  17  51 NW15      30.04S WCI  23
DAYTON         CLOUDY    30  14  51 N16       30.02S WCI  19
WRIGHT-PAT AFB CLOUDY    30  15  51 NW15      30.01S WCI  19
DAYTON GENERAL CLOUDY    31  15  52 NW14      30.00S WCI  21
WILMINGTON     CLOUDY    31  15  52 N17       29.99S WCI  19
$$

OHZ036-037-039>041-045>050-054>059-063>069-073>076-082>088-272200-
  CENTRAL AND SOUTHEAST OHIO

CITY           SKY/WX    TMP DP  RH WIND       PRES   REMARKS
COLUMBUS       FLURRIES  30  17  58 N16       29.98R WCI  19
OSU AIRPORT    CLOUDY    29  13  51 NW15G23   29.99R WCI  18
BOLTON FIELD   CLOUDY    28  18  64 NW13G22   29.99S WCI  18
RICKENBACK AFB CLOUDY    31  17  55 NW17      29.98S WCI  19
NEWARK         CLOUDY    30  18  60 NW17      29.97R WCI  18
MARION         CLOUDY    28  15  58 N12       29.99S WCI  18
LANCASTER      CLOUDY    31  20  63 N15       29.97R WCI  20
ZANESVILLE     CLOUDY    31  19  61 NW15      29.94R WCI  20
NEW PHILLY     CLOUDY    30  17  58 NW12G22   29.95R WCI  20
$$


USA.gov is the U.S. government's official web portal to all federal, state and local government web resources and services.